Tokyo, Japan

03:17 PM JST am 01. Mai 2017 (GMT +0900)
Tokyo (Haneda) International

Wetter Verlauf für RJTT - April, 2017

Change the Weather History Date:

Freitag, April 21, 2017

  Actual Average Record
Temperature  
mittlereTemperatur 60 °F -  
Max. Temperatur 64 °F 68 °F 77 °F (1998)
Min.Temperatur 57 °F 56 °F 42 °F (2013)
Degree Days  
Heizgradtage 4    
Growing Degree Days 10 (Base 50)    
Moisture  
Taupunkt 53 °F    
Average Humidity 77    
Maximum Humidity 88    
Minimum Humidity 68    
Niederschlag  
Niederschlag 0.00 inch - - ()
Luftdruck in Meereshöhe  
Luftdruck in Meereshöhe 29.75 inch    
Wind  
Windgeschwindigkeit 5 mph ()    
Max. Windgeschwindigkeit 12 mph    
Max Gust Speed -    
Sichtweite 6.2 Meilen    
Ereignisse Regen    
Averages and records for this station are not official NWS values.
T = Trace of Precipitation, MM = Missing Value Source: Averaged Metar Reports

Daily Weather History Graph

Daily Weather History Graph

Search for Another Location

Airport or City:

Trip Planner

Search our weather history database for the weather conditions in past years. The results will help you decide how hot, cold, wet, or windy it might be!

Date:

Astronomie

Apr. 21, 2017 Aufgang Untergang
Genaue Zeit 05:01 JST 18:18 JST
Bürgerliche Dämmerung 04:34 JST 18:45 JST
Nautische Dämmerung 04:02 JST 19:17 JST
Astronomische Dämmerung 03:29 JST 19:50 JST
Mond 01:39 JST (4/21) 12:36 JST (4/21)
Länge des sichtbaren Lichts 14h 10m
Tageslänge
13h 17m
Letztes Viertel, 33% of the Moon is Illuminated
Apr 21
Letztes Viertel
Apr 26
Neu
Mai 3
Erstes Viertel
Mai 11
Vollmond
Mai 19
Letztes Viertel

Hourly Weather History & Observations

Zeit (JST) Temp. Taupunkt Feuchtigkeit Druck Sichtweite Wind Dir Windgeschwindigkeit Böengeschwindigkeit Precip Ereignisse Wetterzustand
12:00 AM 57.2 °F 51.8 °F 82% 29.86 inch 6.2 mi Ost-Südost 5.8 mph - N/A   Wolkig
12:30 AM 59.0 °F 53.6 °F 82% 29.86 inch 6.2 mi Ost 5.8 mph - N/A   Wolkig
1:00 AM 59.0 °F 51.8 °F 77% 29.86 inch 6.2 mi Ost-Nordost 5.8 mph - N/A   Wolkig
1:30 AM 59.0 °F 51.8 °F 77% 29.83 inch 6.2 mi Ost-Nordost 5.8 mph - N/A   Wolkig
2:00 AM 57.2 °F 51.8 °F 82% 29.86 inch 6.2 mi Nord 3.5 mph - N/A   Wolkig
2:30 AM 59.0 °F 51.8 °F 77% 29.86 inch 6.2 mi Wechselnd 1.2 mph - N/A   Wolkig
3:00 AM 59.0 °F 51.8 °F 77% 29.83 inch 6.2 mi Nord-Nordost 3.5 mph - N/A   Wolkig
3:30 AM 59.0 °F 51.8 °F 77% 29.83 inch 6.2 mi Nordost 3.5 mph - N/A   Wolkig
4:00 AM 59.0 °F 51.8 °F 77% 29.83 inch 6.2 mi Nord-Nordost 4.6 mph - N/A   Wolkig
4:30 AM 59.0 °F 51.8 °F 77% 29.83 inch 6.2 mi Nordost 5.8 mph - N/A   Wolkig
5:00 AM 59.0 °F 51.8 °F 77% 29.83 inch 6.2 mi Nordost 4.6 mph - N/A   Wolkig
5:30 AM 59.0 °F 51.8 °F 77% 29.83 inch 6.2 mi Ost-Nordost 5.8 mph - N/A   Wolkig
6:00 AM 59.0 °F 51.8 °F 77% 29.80 inch 6.2 mi Ost-Nordost 5.8 mph - N/A   Wolkig
6:30 AM 59.0 °F 51.8 °F 77% 29.83 inch 6.2 mi Nordost 6.9 mph - N/A   Wolkig
7:00 AM 59.0 °F 51.8 °F 77% 29.80 inch 6.2 mi Nordost 8.1 mph - N/A   Wolkig
7:30 AM 59.0 °F 51.8 °F 77% 29.80 inch 6.2 mi Ost-Nordost 8.1 mph - N/A   Wolkig
8:00 AM 59.0 °F 51.8 °F 77% 29.80 inch 6.2 mi Nordost 4.6 mph - N/A   Wolkig
8:30 AM 59.0 °F 51.8 °F 77% 29.80 inch 6.2 mi Nord-Nordost 4.6 mph - N/A   Wolkig
9:00 AM 59.0 °F 51.8 °F 77% 29.80 inch 6.2 mi Ost-Nordost 3.5 mph - N/A   Wolkig
9:30 AM 59.0 °F 51.8 °F 77% 29.80 inch 6.2 mi Ost-Nordost 4.6 mph - N/A   Wolkig
10:00 AM 59.0 °F 51.8 °F 77% 29.80 inch 6.2 mi Ost 4.6 mph - N/A   Wolkig
10:30 AM 59.0 °F 51.8 °F 77% 29.80 inch 6.2 mi Ost 4.6 mph - N/A   Wolkig
11:00 AM 59.0 °F 51.8 °F 77% 29.77 inch 6.2 mi Ost-Südost 3.5 mph - N/A Regen Leichter Regen
11:30 AM 59.0 °F 53.6 °F 82% 29.74 inch 6.2 mi Südost 3.5 mph - N/A   Wolkig
12:00 PM 60.8 °F 53.6 °F 77% 29.74 inch 6.2 mi Südost 4.6 mph - N/A Regen Leichter Regen
12:30 PM 60.8 °F 53.6 °F 77% 29.74 inch 6.2 mi Ost-Südost 4.6 mph - N/A   Wolkig
1:00 PM 62.6 °F 53.6 °F 72% 29.74 inch 6.2 mi Süd 6.9 mph - N/A   Wolkig
1:30 PM 64.4 °F 55.4 °F 73% 29.71 inch 6.2 mi Ost-Südost 9.2 mph - N/A   Wolkig
2:00 PM 62.6 °F 53.6 °F 72% 29.71 inch 6.2 mi Ost-Südost 9.2 mph - N/A   Wolkig
2:30 PM 62.6 °F 51.8 °F 68% 29.68 inch 6.2 mi Süd-Südost 9.2 mph - N/A   Wolkig
3:00 PM 62.6 °F 51.8 °F 68% 29.68 inch 6.2 mi Südost 9.2 mph - N/A   Wolkig
3:30 PM 62.6 °F 51.8 °F 68% 29.68 inch 6.2 mi Süd-Südost 8.1 mph - N/A   Wolkig
4:00 PM 62.6 °F 51.8 °F 68% 29.68 inch 6.2 mi Süd-Südost 10.4 mph - N/A   Wolkig
4:30 PM 62.6 °F 51.8 °F 68% 29.65 inch - Süd 11.5 mph - N/A   Heiter
5:00 PM 62.6 °F 51.8 °F 68% 29.65 inch - Süd 11.5 mph - N/A   Heiter
5:30 PM 62.6 °F 51.8 °F 68% 29.65 inch 6.2 mi Süd 11.5 mph - N/A   Wolkig
6:00 PM 62.6 °F 53.6 °F 72% 29.65 inch 6.2 mi Süd 11.5 mph - N/A   Wolkig
6:30 PM 60.8 °F 53.6 °F 77% 29.65 inch 6.2 mi Süd 9.2 mph - N/A   Wolkig
7:00 PM 60.8 °F 53.6 °F 77% 29.68 inch 6.2 mi Süd 9.2 mph - N/A   Wolkig
7:30 PM 60.8 °F 53.6 °F 77% 29.68 inch 6.2 mi Süd 10.4 mph - N/A   Wolkig
8:00 PM 60.8 °F 53.6 °F 77% 29.68 inch 6.2 mi Süd-Südwest 6.9 mph - N/A   Teils Wolkig
8:30 PM 60.8 °F 55.4 °F 82% 29.68 inch 6.2 mi Süd 5.8 mph - N/A   Teils Wolkig
9:00 PM 59.0 °F 55.4 °F 88% 29.68 inch 6.2 mi Süd 5.8 mph - N/A   Teils Wolkig
9:30 PM 59.0 °F 55.4 °F 88% 29.68 inch 6.2 mi Süd 6.9 mph - N/A   Teils Wolkig
10:00 PM 59.0 °F 55.4 °F 88% 29.68 inch 6.2 mi Südwest 5.8 mph - N/A   Teils Wolkig
10:30 PM 59.0 °F 55.4 °F 88% 29.68 inch 6.2 mi West 3.5 mph - N/A   Teils Wolkig
11:00 PM 59.0 °F 55.4 °F 88% 29.68 inch 6.2 mi West 3.5 mph - N/A   Teils Wolkig
11:30 PM 59.0 °F 55.4 °F 88% 29.68 inch 6.2 mi Nordwest 4.6 mph - N/A   Teils Wolkig